Flag for US Virgin Islands Weather past 2 weeks in Charlotte Amalie, US Virgin Islands

Now
86 °F

Passing clouds.


Feels Like: 94 °F
Forecast: 81 / 89 °F
Wind: 13 mph from East

Location: Cyril E. King International Airport

Current Time: Aug 4, 2015 at 8:15:56 AM

Latest Report: Aug 4, 2015 at 7:53 AM


Visibility: 10 mi

Pressure: 30.07 "Hg

Humidity: 67%

Dew point: 74 °F

Location of Charlotte AmalieLocation

Historic Weather in Charlotte Amalie — Graph

°F

Charlotte Amalie temperature yesterday

Maximum temperature yesterday: 92 °F (at 11:53 AM)
Minimum temperature yesterday: 82 °F (at 12:53 AM)
Average temperature yesterday: 86 °F

Past Weeks' High & Low Weather Summary

 TemperatureHumidityPressure
High93 °F (Jul 27, 10:53 AM)88% (Jul 22, 12:53 AM)30.12 "Hg (Jul 22, 12:53 AM)
Low79 °F (Jul 20, 8:19 AM)42% (Aug 1, 2:53 PM)29.94 "Hg (Aug 2, 4:53 PM)
Average85 °F70%30.03 "Hg
* Reported Jul 20 6:53 AM — Aug 4 6:53 AM, Charlotte Amalie, Weather by CustomWeather, © 2015

Note: Actual official high and low records may vary slightly from our data, if they occured in-between our weather recording intervals... More about our weather records

Advertising

Charlotte Amalie weather history for previous 24 hours

 ConditionsComfort  
Time TempWeatherWind HumidityBarometerVisibility
6:53 AM
Tue, Aug 4
84 °FSunny.9 mph70%30.06 "Hg10 mi
5:53 AM83 °FPassing clouds.8 mph74%30.04 "Hg10 mi
5:41 AM83 °FPartly cloudy.7 mph72%30.04 "Hg10 mi
5:10 AM84 °FMostly cloudy.12 mph74%30.03 "Hg10 mi
4:53 AM84 °FOvercast.8 mph74%30.03 "Hg10 mi
3:53 AM83 °FPassing clouds.12 mph72%30.03 "Hg10 mi
2:53 AM83 °FPassing clouds.12 mph72%30.03 "Hg10 mi
1:53 AM84 °FPassing clouds.13 mph70%30.03 "Hg10 mi
12:53 AM84 °FPassing clouds.16 mph70%30.04 "Hg10 mi
11:53 PM
Mon, Aug 3
84 °FClear.9 mph70%30.06 "Hg10 mi
10:53 PM84 °FPassing clouds.14 mph72%30.06 "Hg10 mi
9:53 PM84 °FClear.15 mph70%30.05 "Hg10 mi
8:53 PM85 °FPassing clouds.16 mph70%30.03 "Hg10 mi
7:53 PM85 °FPassing clouds.12 mph72%30.01 "Hg10 mi
6:53 PM86 °FPassing clouds.15 mph70%30.00 "Hg10 mi
5:53 PM88 °FScattered clouds.10 mph63%29.99 "Hg10 mi
4:53 PM89 °FBroken clouds.16 mph61%29.98 "Hg10 mi
4:41 PM90 °FBroken clouds.15 mph59%29.98 "Hg10 mi
4:19 PM89 °FOvercast.12 mph63%29.98 "Hg10 mi
3:53 PM90 °FMostly cloudy.15 mph61%29.98 "Hg10 mi
2:53 PM92 °FScattered clouds.16 mph56%29.99 "Hg10 mi
1:53 PM88 °FPartly sunny.14 mph63%30.00 "Hg10 mi
12:53 PM91 °FPassing clouds.17 mph54%30.02 "Hg10 mi
11:53 AM92 °FPassing clouds.17 mph49%30.03 "Hg10 mi
10:53 AM90 °FPassing clouds.17 mph57%30.03 "Hg10 mi
9:53 AM87 °FBroken clouds.14 mph67%30.03 "Hg10 mi
8:53 AM88 °FPassing clouds.15 mph63%30.02 "Hg10 mi
Weather by CustomWeather, © 2015

See weather overviewHow to use our weather pages